Regional Weather Roundup
Issued by NWS Mobile, AL

Current Version | Previous Version | Text Only | Print | Product List | Glossary On
Versions: 1 2 3 4 5 6 7 8 9 10 11 12 13 14 15 16 17 18 19 20 21 22 23 24 25 26 27
000
ASUS44 KMOB 221013
RWRMOB
REGIONAL WEATHER ROUNDUP
NATIONAL WEATHER SERVICE MOBILE AL
500 AM CDT SAT JUL 22 2017

NOTE: "FAIR" INDICATES FEW OR NO CLOUDS BELOW 12,000 FEET WITH NO
      SIGNIFICANT WEATHER AND/OR OBSTRUCTIONS TO VISIBILITY.

  * THESE STATIONS ARE PART OF THE UNIVERSITY OF SOUTH ALABAMA
    MESONET AND ARE NOT UNDER NWS OR FAA QUALITY CONTROL.

ALZ061>064-221100-
COASTAL ALABAMA

CITY           SKY/WX    TMP DP  RH WIND       PRES   REMARKS
MOBILE REG APT CLOUDY    76  73  91 MISG      30.02R
BROOKLEY FIELD TSTM      79  77  94 SW7       30.03R
USA CAMPUS*    NOT AVBL
DOG RIVER*     NOT AVBL


CITY           SKY/WX    TMP DP  RH WIND       PRES   REMARKS
GULF SHORES    PTCLDY    78  78 100 CALM      30.00R

$$

ALZ051>060-221100-
INTERIOR SOUTHWEST AND SOUTH CENTRAL ALABAMA

CITY           SKY/WX    TMP DP  RH WIND       PRES   REMARKS
GREENVILLE     PTCLDY    72  69  90 CALM      30.01R
EVERGREEN      CLEAR     73  72  96 CALM      30.01R FOG
ATMORE*        NOT AVBL
ANDALUSIA/OPP  CLEAR     73  69  87 CALM      30.00R
ANDALUSIA*     NOT AVBL
FLORALA APT    CLEAR     71  67  87 CALM      30.03R
FLORALA*       NOT AVBL

$$

FLZ001>006-221100-
WESTERN FLORIDA PANHANDLE

CITY           SKY/WX    TMP DP  RH WIND       PRES   REMARKS
PENSACOLA      PTCLDY    82  75  79 W5        29.99R
NAS PENSACOLA  PTCLDY    78  75  90 W3        29.99R
MILTON         CLEAR     72  72 100 CALM      30.00R
WHTNG S FIELD  PTCLDY    76  74  93 CALM      30.00R


CITY           SKY/WX    TMP DP  RH WIND       PRES   REMARKS
JAY*           NOT AVBL
DUKE FIELD     PTCLDY    73  72  96 CALM      30.01R
CRESTVIEW      MOCLDY    72  70  93 CALM      30.03R FOG
VALPARAISO     PTCLDY    75  74  99 CALM      30.00R
DESTIN         PTCLDY    85  75  72 VRB3      30.00R

$$

MSZ076-079-221100-
INTERIOR SOUTHEAST MISSISSIPPI

CITY           SKY/WX    TMP DP  RH WIND       PRES   REMARKS
LEAKESVILLE*   NOT AVBL
AGRICOLA*      NOT AVBL

$$

MARINE OBSERVATIONS

STATION/POSITION TIME  TEMP    WIND        PRES    WAVE
                       AIR SEA DIR/SP/G            HT/PER
                 (UTC) (F)     (DEG/KT/KT) (MB)    (FT/S)
PASCAGOULA       0948   79     300/  9/ 12 1015.6R
PETIT BOIS ISLND 0948   82     300/ 13/ 16 1016.5R
GRAND BAY        0830   79     200/ 11     1016.0S
KATRINA CUT      0930   84     220/ 11     1015.2R
CEDAR POINT      0930   85     210/ 12     1015.2R
E DAUPHIN ISLAND 0900   84     190/  7/ 10 1014.6S
MIDDLE BAY LIGHT 0930   81     240/ 11     1015.6R
USCG MOBILE BAY  0948   79 86   CALM  /  1 1016.5R
STATE DOCKS      0948   80 87              1015.7R
MEAHER PARK      0930   79     130/  6     1015.6R
WEEKS BAY        0845   80                   N/A
FORT MORGAN      0948   84     220/ 11/ 12   N/A
12 S ORANGE BCH  0950   84 87  230/ 12/ 14 1015.1R   1/ 3
PENSACOLA BAY    0948   81 88              1015.7R
64 S DAUPHIN ISL 0950   83 85  230/  8/ 10 1015.5S   1
67 S FORT MORGAN 0930   82     230/  8     1015.6R

$$

SELECTED LOCATIONS ACROSS THE REGION

CITY           SKY/WX    TMP DP  RH WIND       PRES   REMARKS
NEW ORLEANS    CLOUDY    80  77  90 CALM      29.98S
GULFPORT       CLOUDY    77  75  93 NE7       29.98R
PASCAGOULA AP  CLOUDY    76  73  91 CALM      30.00R
PASCAGOULA*    NOT AVBL
HATTIESBURG    CLEAR     72  71  97 CALM      30.01R
LAUREL         CLEAR     71  71 100 CALM      30.01R FOG
MERIDIAN       CLEAR     73  72  96 CALM      30.00R
JACKSON        CLEAR     73  72  96 S5        29.99R
MONTGOMERY     CLEAR     73  69  87 CALM      30.01R
TROY           CLEAR     71  71 100 CALM      30.02R
ASHFORD*       NOT AVBL
DOTHAN         CLEAR     73  73 100 S5        30.04R
PANAMA CITY    PTCLDY    73  71  93 NE3       30.00R

$$





USA.gov is the U.S. government's official web portal to all federal, state and local government web resources and services.